Погода в Ембаеве

Россия / Тюменская область     57°09′02″N   65°45′53″E
темп.,
°C
ветер,
м/с
пор.,
м/с
влажн.,
%
обл.,
%
осадки,
мм/ч
давл.,
гПа
погр.,
м
8 мая, сб
сб823:00+13юз35495 0.0 101865
02:00+11зюз36586 0.0 101982
05:00+10юз345850 0.0 101957
08:00+16юз34445 0.0 1019273
11:00+21ююз333072 0.0 10181520
14:00+23ю1224100 0.0 10172546
17:00+23юв222466 0.0 10162861
20:00+19ю2236100 0.0 101620
9 мая, вс
вс923:00+16з2241100 0.0 101613
02:00+14с2244100 0.0 101615
05:00+14св2249100 0.0 101617
08:00+17вюв354089 0.0 1017250
11:00+22вюв3627100 0.0 10172315
14:00+23вюв5725100 0.0 10173158
17:00+22в5732100 0.0 10171423
20:00+18св495296 0.1 1019231
10 мая, пн
пн1023:00+16в4105399 0.1 1020293
02:00+14всв4956100 0.0 1021289
05:00+11всв3862100 0.0 1023188
08:00+14всв4744100 0.0 1024515
11:00+18в463184 0.0 10241433
14:00+20в352688 0.0 10241875
17:00+21всв342589 0.0 10232061
20:00+17св22381 0.0 102311
11 мая, вт
вт1123:00+14св11420 0.0 102410
02:00+12юв11470 0.0 102310
05:00+10з115381 0.0 102410
08:00+15зюз1242100 0.0 1023195
11:00+19зюз3333100 0.0 1023919
14:00+21зсз6633100 0.0 10211860
17:00+14зсз4581100 0.4 1022383
20:00+13ссз598122 1.6 1023736
12 мая, ср
ср1223:00+9ссз5108419 1.6 1023585
02:00+8ссз5981100 0.0 1023728
05:00+7ссз5978100 0.0 1024855
08:00+9ссз6106941 0.0 1025763
11:00+14с69458 0.0 10251368
14:00+17с6827100 0.0 10242049
17:00+17с6727100 0.0 10252071
20:00+13с374137 0.0 1026170